Miscellaneous Local Product
Issued by NWS North Platte, NE

Home | Current Version | Previous Version | Text Only | Print | Product List | Glossary On
Versions: 1 2 3 4 5 6 7 8 9 10 11 12 13 14 15 16 17 18 19 20 21 22 23 24 25 26 27 28 29 30 31 32 33 34 35 36 37 38 39 40 41 42 43 44 45 46 47 48 49 50
000
AXUS43 KLBF 280510
MISLBF


WESTERN AND NORTH CENTRAL NEBRASKA HOURLY WEATHER ROUNDUP
NATIONAL WEATHER SERVICE NORTH PLATTE NE
1200 AM CDT THU JUL 28 2016

NOTE: "FAIR" INDICATES FEW OR NO CLOUDS BELOW 12,000 FEET WITH NO
SIGNIFICANT WEATHER AND/OR OBSTRUCTIONS TO VISIBILITY.

NOTE: STATIONS NOT REPORTING VARIABLES SUCH AS SKY/WEATHER OR
PRESSURE ARE PROVIDED BY RAWS AND APRS NETWORKS AND ARE NOT UNDER
NATIONAL WEATHER SERVICE QUALITY CONTROL.

...OBSERVATIONS IN AND NEAR THE EASTERN PANHANDLE OF NEBRASKA...

CITY           SKY/WX    TMP DP  RH WIND       PRES   REMARKS
PINE RIDGE     CLEAR     66  64  93 CALM      30.15F
CHADRON        CLOUDY    70  61  73 S14       30.14F
ALLIANCE       CLOUDY    66  60  81 E10       30.17F
SIDNEY         MOCLDY    67  62  84 E7        30.21R
CRESCENT LAKE    N/A     68  55  62 E8G15       N/A
$$

...OBSERVATIONS IN NORTHERN NEBRASKA AND FAR SOUTHERN SOUTH DAKOTA...

CITY           SKY/WX    TMP DP  RH WIND       PRES   REMARKS
WINNER         FAIR      64  60  87 W5        30.12R
VALENTINE      CLEAR     60  57  89 MISG      30.13S
THEDFORD       PTCLDY    64  60  88 CALM      30.15F
AINSWORTH      CLOUDY    61  59  93 W8        30.11S
O`NEILL        CLOUDY    66  61  82 CALM      30.07F
ORD            PTCLDY    65  61  87 W3        30.09F
BROKEN BOW     CLEAR     63  61  93 N7        30.11F
VALENTINE NWR    N/A     62  56  81 SE5         N/A
BUTTE            N/A     64  61  90 NW3         N/A
HALSEY           N/A     65  60  83 CALM        N/A
EWING            N/A     66  62  86 NW3         N/A
$$

...OBSERVATIONS IN SOUTHWEST NEBRASKA AND FAR NORTHEAST COLORADO...

CITY           SKY/WX    TMP DP  RH WIND       PRES   REMARKS
WRAY           FAIR      73  61  64 SE6       30.15R
HOLYOKE        FAIR      72  63  73 E7        30.15R
IMPERIAL       PTCLDY    74  66  76 E10       30.12S
OGALLALA       CLEAR     71  56  61 E7        30.15R
NORTH PLATTE   CLEAR     67  62  84 NE12      30.12F
MCCOOK         CLOUDY    73  68  84 W8        30.10R
LEXINGTON      CLEAR     67  64  87 NE6       30.11S
STAPLETON        N/A     65  60  83 CALM        N/A
GOTHENBURG       N/A     71  62  73 N6          N/A
CALLAWAY         N/A     65  64  95 CALM        N/A
$$

...OBSERVATIONS IN CENTRAL LINCOLN COUNTY AREA...

CITY           SKY/WX    TMP DP  RH WIND       PRES   REMARKS
N.P. AIRPORT   CLEAR     67  62  84 NE12      30.12F
N.P. DOWNTOWN    N/A     69  61  76 NE9         N/A
N.P. SOUTHEAST   N/A     68  61  77 CALM        N/A
N.P. HILLCREST   N/A     67  60  79 E16         N/A
$$

...SOME OBSERVATIONS FROM AROUND THE REGION...

CITY           SKY/WX    TMP DP  RH WIND       PRES   REMARKS
DENVER         MOCLDY    72  58  61 E10       30.21R
LARAMIE        CLEAR     62  49  62 SE9       30.32S
CHEYENNE       CLEAR     64  57  78 SE7       30.30R
SCOTTSBLUFF    CLOUDY    69  61  75 E21G36    30.15F
RAPID CITY     CLOUDY    62  57  83 SE3       30.15F
BISMARCK       CLOUDY    66  62  87 E7        30.13S
PIERRE         CLEAR     66  62  87 E3        30.08F
SIOUX FALLS    CLOUDY    68  62  81 N6        30.04S
OMAHA          PTCLDY    76  70  82 E3        29.98S
GRAND ISLAND   CLEAR     70  66  87 N3        30.06F
KANSAS CITY    PTCLDY    78  71  79 SE3       29.96F
WICHITA        PTCLDY    82  72  71 E3        29.99R
OKLAHOMA CITY  PTCLDY    75  73  93 CALM      29.98S
DALLAS         MOCLDY    83  72  69 S6        29.93F
AMARILLO       LGT RAIN  73  54  51 W14G30    30.08F
DODGE CITY     CLEAR     73  69  87 E6        30.05F
HAYS           CLEAR     75  63  64 E6        30.04R
GOODLAND       TSTM      64  60  87 S15G21    30.10F
$$




USA.gov is the U.S. government's official web portal to all federal, state and local government web resources and services.